User: anonymous   Login
Location: Unspecified
(0.0000°N, 0.0000°E)
Time: 15:08:00
(UTC+00:00)
Language:

Oscar 10/S400 - Orbit

View from above orbital plane
View from above orbital plane
View from above satellite
View from above satellite

Ground track
Ground track

The orbit data is extracted from the following two-line orbital elements,

1 14129U 83058B   22279.96855957 -.00000343  00000-0  00000+0 0  9997
2 14129  26.5716  77.9455 6025810 112.6768 319.7543  2.05872479267715
Epoch (UTC): 06 October 2022 23:14:43
Eccentricity: 0.6025810
inclination: 26.5716°
perigee height: 3995 km
apogee height: 35451 km
right ascension of ascending node: 77.9455°
argument of perigee: 112.6768°
revolutions per day: 2.05872479
mean anomaly at epoch: 319.7543°
orbit number at epoch: 26771

The dashed part of the orbit path shows where the satellite is in the earth's shadow,  

DLR